Weather in Pautovo

Russia / Altai Krai     52°12′55″N   84°15′52″E
temp.,
°C
wind,
m/s
gust,
m/s
humid.,
%
clouds,
%
prec.,
mm/h
press.,
hPa
HPBL,
m
19 january, tue
tue1901:00−8wnw4994100 0.2 1018406
04:00−12w3594100 0.2 1019203
07:00−16w249499 0.4 102181
10:00−19wsw239548 0.1 102321
13:00−15w249357 0.1 1023161
16:00−15w239397 0.0 1023110
19:00−18w129394 0.0 102420
22:00−19wsw1192100 0.0 102520
20 january, wed
wed2001:00−19wnw1190100 0.0 102620
04:00−21ne129395 0.0 102620
07:00−22e239495 0.0 102822
10:00−22ene349582 0.0 102873
13:00−18e359391 0.0 1028194
16:00−16e469296 0.0 1026240
19:00−17e379397 0.0 1025169
22:00−16e3693100 0.0 1023132
21 january, thu
thu2101:00−12e3493100 0.1 1021111
04:00−8ese2396100 1.7 102083
07:00−1wsw51491100 2.9 1020820
10:00−1wsw41388100 0.0 1020673
13:00−1w51093100 0.1 1020766
16:00−3n2297100 0.3 1018130
19:00−4ene2297100 0.6 101646
22:00−3e3597100 1.4 1014171
22 january, fri
fri2201:00−3e1298100 3.5 101082
04:00−2se0198100 1.8 100821
07:00−3w2298100 3.5 100779
10:00−7nw4896100 2.9 1009307
13:00−9w4793100 4.3 1012429
16:00−11wnw4793100 0.2 1015456
19:00−14w3596100 0.4 1017160
22:00−16wnw3596100 0.1 1019156
23 january, sat
sat2301:00−18w3794100 0.1 1021266
04:00−22w3895100 0.0 1025188
07:00−23w3695100 0.0 1027152
10:00−24ssw1295100 0.0 102824
13:00−18ese3492100 0.0 1026156
16:00−16ese3596100 0.6 1024138
19:00−12wsw31591100 1.9 10251316
22:00−12wsw61576100 0.0 1026810